PDT,Max TemperatureF,Mean TemperatureF,Min TemperatureF,Max Dew PointF,MeanDew PointF,Min DewpointF,Max Humidity, Mean Humidity, Min Humidity, Max Sea Level PressureIn, Mean Sea Level PressureIn, Min Sea Level PressureIn, Max VisibilityMiles, Mean VisibilityMiles, Min VisibilityMiles, Max Wind SpeedMPH, Mean Wind SpeedMPH, Max Gust SpeedMPH,PrecipitationIn, CloudCover, Events, WindDirDegrees
2013-7-1,105,86,66,60,56,46,68,41,14,29.80,29.77,29.73,10,10,10,10,4,14,0.00,0,,230
2013-7-2,103,88,72,61,57,53,68,46,23,29.83,29.80,29.76,10,10,10,14,7,21,0.00,0,,205
2013-7-3,105,86,67,63,58,54,73,48,22,29.85,29.78,29.69,10,10,10,12,6,16,0.00,0,,193
2013-7-4,109,90,71,63,58,49,68,42,16,29.71,29.66,29.58,10,10,10,14,4,18,0.00,0,,211
2013-7-5,83,73,63,54,51,47,63,49,34,29.73,29.67,29.62,10,10,10,16,8,23,0.00,0,,197
2013-7-6,87,72,57,54,52,48,80,55,29,29.77,29.72,29.68,10,10,7,14,8,20,0.00,0,,203
2013-7-7,93,75,57,54,48,28,80,45,10,29.81,29.77,29.73,10,10,10,10,6,,0.00,0,,203
2013-7-8,94,75,56,54,46,30,83,48,12,29.92,29.87,29.80,10,10,10,8,6,,0.00,0,,208
2013-7-9,100,81,62,53,48,37,67,40,12,30.01,29.94,29.88,10,10,10,9,3,16,0.00,0,,213
2013-7-10,97,79,60,55,49,33,72,42,11,29.92,29.88,29.82,10,10,10,17,4,21,0.00,0,,203
2013-7-11,88,71,54,51,50,44,89,56,23,29.89,29.85,29.80,10,10,10,14,7,18,0.00,0,,192
2013-7-12,87,71,55,53,51,49,83,56,29,29.91,29.86,29.81,10,10,8,14,7,20,0.00,0,,200
2013-7-13,94,76,57,55,48,38,77,46,15,29.93,29.88,29.84,10,10,10,12,6,15,0.00,0,,205
2013-7-14,94,76,58,56,49,42,77,48,18,29.95,29.89,29.82,10,10,10,12,5,16,0.00,0,,200
2013-7-15,84,69,54,52,50,48,83,57,31,29.86,29.82,29.76,10,10,10,15,9,21,0.00,0,,200
2013-7-16,77,66,55,53,51,50,86,63,40,29.98,29.90,29.82,10,10,10,18,11,26,0.00,0,,199
2013-7-17,92,73,53,54,51,42,93,56,19,30.07,30.01,29.96,10,10,9,10,5,16,0.00,1,,209
2013-7-18,97,76,55,54,50,40,86,50,14,30.02,29.95,29.86,10,10,10,10,4,14,0.00,0,,203
2013-7-19,99,79,58,55,52,47,80,51,21,29.90,29.83,29.73,10,10,9,13,4,17,0.00,0,,204
2013-7-20,98,78,58,57,53,51,80,52,24,29.81,29.74,29.64,10,10,8,29,5,104,0.00,0,,200
2013-7-21,94,77,60,56,51,47,72,47,21,29.81,29.74,29.70,10,10,10,16,9,24,0.00,0,,207
2013-7-22,91,78,64,54,48,37,67,42,17,29.92,29.87,29.82,10,10,10,14,9,18,0.00,0,,204
2013-7-23,90,79,67,53,49,45,58,40,22,29.97,29.93,29.88,10,10,10,17,7,23,0.00,0,,191
2013-7-24,98,80,62,57,53,50,72,47,22,29.95,29.89,29.82,10,10,10,10,4,15,0.00,0,,201
2013-7-25,94,79,64,59,54,50,67,49,30,29.94,29.89,29.86,10,10,10,14,5,18,0.00,0,,190
2013-7-26,94,77,59,57,53,52,75,52,28,30.04,29.97,29.91,10,10,10,13,7,17,0.00,0,,195
2013-7-27,91,74,56,56,54,51,80,56,31,29.95,29.88,29.78,10,10,10,13,7,18,0.00,0,,200
2013-7-28,87,72,56,57,53,50,86,59,31,29.83,29.78,29.73,10,10,7,14,9,21,0.00,0,,204
2013-7-29,81,68,55,52,51,48,86,61,35,29.96,29.88,29.78,10,8,6,18,11,24,0.00,1,,207
2013-7-30,88,71,54,57,51,39,89,58,26,30.07,30.01,29.95,10,8,3,12,8,20,0.00,0,,203
2013-7-31,88,72,55,52,50,47,83,54,24,30.04,29.98,29.91,10,10,9,16,8,21,0.00,0,,196